NOAA 17 DEB, 48753

Orbit data source: Space-Track

NOAA 17 DEB, 48753 is space debris in SSO originally from a launch on Mon, 24 Jun 2002 UTC launched from the Air Force Western Test Range (AFWTR). Debris objects in space refer to the collection of defunct objects orbiting the Earth. Examples of debris include non-operational satellites, rocket bodies, and fragments generated from explosions, collisions, or faulty payload assembly.

Loading next visibility...
Identifier
48753, 2002-032CN
Orbit
SSO
Country
Flag of USUS
Related business
Manufacturer
Unknown
Mission
Spacecraft
Bus & Motor
Unknown
Mass
Unknown
Launch date (UTC)
2002-06-24 (24 years ago)
Launch vehicle
Unknown
Launch site
Air Force Western Test Range (AFWTR)
Object type
Payload
Rocket body
Debris
Shape & HBR
Unknown shape, 0.1 m
Radar Cross Section
Medium (>0.1 m² and <1 m²)

Expand to show TLE details & history
Last TLE update: 2 days ago

TLE from 2 days ago
0 NOAA 17 DEB
1 48753U 02032CN  26171.42132860  .00007309  00000-0  15396-2 0  9992
2 48753  98.7396 162.9047 0021450 163.7086 196.4807 14.59649374274003
Epoch: 2026-06-20T10:06Z
TLE epoch observation values (Epoch: 2026-06-20T10:06:42.791Z)
Latitude
0.00008°
Longitude
102.5902°
Altitude
711.827 km
Speed
7.492 km/s
True Right ascension
10h 51m 37s
True Declination
0° 00' 00"
Sunlit
Object was in daylight at epoch
Visualization orbit readout
Latitude
Unknown
Longitude
Unknown
Altitude
Unknown
Speed
Unknown
Apparent Right ascension
Unknown
Apparent Declination
Unknown
Sunlit
N/A
Visualization observer readout
Local Sidereal Time
21:39:01
Azimuth
Unknown
Elevation
Unknown
Doppler factor
Unknown
Orbital elements
Apogee altitude
706.578 km
Perigee altitude
676.249 km
Semi-major axis
7,069.551 km
Eccentricity
0.00215
Inclination
98.7396°
RAAN
162.9047°
Arg. of periapsis
163.7086°
True anomaly
196.41115°
Mean anomaly
196.4807°
Eccentric anomaly
196.44591°
Mean motion
3.65137 °/min
Orbital period
98.59 mins
BSTAR
0.0015396
Loading maneuver chart data...
Computing Atmospheric mass density...

Documentation

Showing up to 5 results
|